• In Deutschland
  • Länderverzeichnis
  • Für 7 Tage
  • Wassertemperatur
  • Satellitenkarten
  • Wetterkarte
  • Widgets
  • user-avatar
    Anmelden

    Stündliche Wetter Geesthacht

    Heute, 21 Februar, Mittwoch

    Zeit Temperatur Niederschläge Wind Luftdruck Luftfeuchtigkeit
    00:00 -3°C° 0 mm 2 m/S 768 mmHg 84%
    01:00 -3°C° 0 mm 2 m/S 768 mmHg 84%
    02:00 -3°C° 0 mm 2 m/S 768 mmHg 84%
    03:00 -3°C° 0 mm 2 m/S 768 mmHg 84%
    04:00 -3°C° 0 mm 2 m/S 768 mmHg 84%
    05:00 -3°C° 0 mm 2 m/S 768 mmHg 84%
    06:00 -1°C° 0 mm 1 m/S 768 mmHg 83%
    07:00 -1°C° 0 mm 1 m/S 768 mmHg 83%
    08:00 0°C° 0 mm 1 m/S 768 mmHg 77%
    09:00 +1°C° 0 mm 1 m/S 769 mmHg 71%
    10:00 +1°C° 0 mm 2 m/S 769 mmHg 65%
    11:00 +2°C° 0 mm 2 m/S 769 mmHg 61%
    12:00 +3°C° 0 mm 2 m/S 769 mmHg 57%
    13:00 +4°C° 0 mm 2 m/S 769 mmHg 53%
    14:00 +4°C° 0 mm 2 m/S 768 mmHg 54%
    15:00 +3°C° 0 mm 2 m/S 768 mmHg 56%
    16:00 +3°C° 0 mm 2 m/S 768 mmHg 57%
    17:00 +2°C° 0 mm 2 m/S 768 mmHg 64%
    18:00 +1°C° 0 mm 2 m/S 768 mmHg 70%
    19:00 -2°C° 0 mm 2 m/S 768 mmHg 77%
    20:00 -2°C° 0 mm 2 m/S 769 mmHg 79%
    21:00 -2°C° 0 mm 2 m/S 769 mmHg 81%
    22:00 -3°C° 0 mm 2 m/S 769 mmHg 83%
    23:00 -1°C° 0 mm 1 m/S 769 mmHg 84%

    Morgen, 22 Februar, Donnerstag

    Zeit Temperatur Niederschläge Wind Luftdruck Luftfeuchtigkeit
    00:00 -1°C° 0 mm 1 m/S 769 mmHg 85%
    01:00 -1°C° 0 mm 1 m/S 769 mmHg 86%
    02:00 -1°C° 0 mm 1 m/S 769 mmHg 86%
    03:00 -1°C° 0 mm 1 m/S 769 mmHg 86%
    04:00 -1°C° 0 mm 1 m/S 769 mmHg 86%
    05:00 -1°C° 0 mm 1 m/S 769 mmHg 86%
    06:00 -1°C° 0 mm 1 m/S 769 mmHg 86%
    07:00 -1°C° 0 mm 1 m/S 769 mmHg 86%
    08:00 0°C° 0 mm 1 m/S 769 mmHg 81%
    09:00 -1°C° 0 mm 2 m/S 769 mmHg 76%
    10:00 +1°C° 0 mm 2 m/S 769 mmHg 72%
    11:00 +2°C° 0 mm 2 m/S 769 mmHg 69%
    12:00 +1°C° 0 mm 3 m/S 769 mmHg 66%
    13:00 +2°C° 0 mm 3 m/S 768 mmHg 63%
    14:00 +2°C° 0 mm 3 m/S 768 mmHg 61%
    15:00 0°C° 0 mm 4 m/S 768 mmHg 60%
    16:00 0°C° 0 mm 4 m/S 768 mmHg 59%
    17:00 0°C° 0 mm 3 m/S 768 mmHg 64%
    18:00 -1°C° 0 mm 3 m/S 768 mmHg 70%
    19:00 -2°C° 0 mm 3 m/S 768 mmHg 75%
    20:00 -4°C° 0 mm 3 m/S 768 mmHg 77%
    21:00 -4°C° 0 mm 3 m/S 769 mmHg 78%
    22:00 -4°C° 0 mm 3 m/S 769 mmHg 80%
    23:00 -4°C° 0 mm 2 m/S 769 mmHg 80%

    übermorgen, 23 Februar, Freitag

    Zeit Temperatur Niederschläge Wind Luftdruck Luftfeuchtigkeit
    00:00 -4°C° 0 mm 2 m/S 769 mmHg 81%
    01:00 -4°C° 0 mm 2 m/S 769 mmHg 81%
    02:00 -4°C° 0 mm 2 m/S 769 mmHg 81%
    03:00 -4°C° 0 mm 2 m/S 769 mmHg 81%
    04:00 -4°C° 0 mm 2 m/S 769 mmHg 81%
    05:00 -4°C° 0 mm 2 m/S 769 mmHg 80%
    06:00 -4°C° 0 mm 2 m/S 769 mmHg 79%
    07:00 -4°C° 0 mm 2 m/S 769 mmHg 79%
    08:00 -4°C° 0 mm 3 m/S 770 mmHg 71%
    09:00 -4°C° 0 mm 3 m/S 770 mmHg 64%
    10:00 -2°C° 0 mm 3 m/S 770 mmHg 57%
    11:00 -1°C° 0 mm 3 m/S 770 mmHg 52%
    12:00 0°C° 0 mm 3 m/S 770 mmHg 47%
    13:00 +1°C° 0 mm 3 m/S 770 mmHg 42%
    14:00 +1°C° 0 mm 3 m/S 770 mmHg 43%
    15:00 +1°C° 0 mm 3 m/S 770 mmHg 44%
    16:00 +1°C° 0 mm 3 m/S 770 mmHg 45%
    17:00 0°C° 0 mm 3 m/S 770 mmHg 51%
    18:00 -1°C° 0 mm 3 m/S 770 mmHg 58%
    19:00 -4°C° 0 mm 3 m/S 770 mmHg 65%
    20:00 -4°C° 0 mm 3 m/S 770 mmHg 67%
    21:00 -4°C° 0 mm 3 m/S 771 mmHg 69%
    22:00 -4°C° 0 mm 3 m/S 771 mmHg 72%
    23:00 -4°C° 0 mm 3 m/S 771 mmHg 73%

    24 Februar, Samstag

    Zeit Temperatur Niederschläge Wind Luftdruck Luftfeuchtigkeit
    00:00 -4°C° 0 mm 3 m/S 771 mmHg 75%
    01:00 -4°C° 0 mm 3 m/S 771 mmHg 77%
    02:00 -4°C° 0 mm 3 m/S 771 mmHg 78%
    03:00 -4°C° 0 mm 3 m/S 771 mmHg 80%
    04:00 -4°C° 0 mm 3 m/S 771 mmHg 81%
    05:00 -4°C° 0 mm 3 m/S 771 mmHg 82%
    06:00 -4°C° 0 mm 4 m/S 772 mmHg 82%
    07:00 -4°C° 0 mm 4 m/S 772 mmHg 82%
    08:00 -4°C° 0 mm 5 m/S 772 mmHg 75%
    09:00 -2°C° 0 mm 5 m/S 772 mmHg 68%
    10:00 -2°C° 0 mm 6 m/S 772 mmHg 62%
    11:00 -2°C° 0 mm 6 m/S 772 mmHg 58%
    12:00 -1°C° 0 mm 6 m/S 772 mmHg 55%
    13:00 -1°C° 0 mm 6 m/S 773 mmHg 51%
    14:00 -1°C° 0 mm 6 m/S 772 mmHg 50%
    15:00 -2°C° 0 mm 6 m/S 772 mmHg 48%
    16:00 -2°C° 0 mm 6 m/S 772 mmHg 47%
    17:00 -3°C° 0 mm 6 m/S 773 mmHg 50%
    18:00 -4°C° 0 mm 6 m/S 773 mmHg 54%
    19:00 -5°C° 0 mm 6 m/S 773 mmHg 58%
    20:00 -6°C° 0 mm 5 m/S 774 mmHg 59%
    21:00 -6°C° 0 mm 5 m/S 774 mmHg 61%
    22:00 -6°C° 0 mm 5 m/S 774 mmHg 63%
    23:00 -6°C° 0 mm 5 m/S 774 mmHg 62%

    25 Februar, Sonntag

    Zeit Temperatur Niederschläge Wind Luftdruck Luftfeuchtigkeit
    00:00 -7°C° 0 mm 5 m/S 775 mmHg 61%
    01:00 -7°C° 0 mm 5 m/S 775 mmHg 61%
    02:00 -7°C° 0 mm 5 m/S 775 mmHg 59%
    03:00 -7°C° 0 mm 4 m/S 775 mmHg 57%
    04:00 -7°C° 0 mm 4 m/S 775 mmHg 56%
    05:00 -7°C° 0 mm 4 m/S 775 mmHg 55%
    06:00 -8°C° 0 mm 4 m/S 775 mmHg 55%
    07:00 -7°C° 0 mm 3 m/S 775 mmHg 54%
    08:00 -7°C° 0 mm 4 m/S 775 mmHg 52%
    09:00 -7°C° 0 mm 4 m/S 776 mmHg 50%
    10:00 -5°C° 0 mm 4 m/S 776 mmHg 48%
    11:00 -4°C° 0 mm 4 m/S 776 mmHg 45%
    12:00 -4°C° 0 mm 4 m/S 775 mmHg 43%
    13:00 -3°C° 0 mm 4 m/S 775 mmHg 40%
    14:00 -3°C° 0 mm 4 m/S 775 mmHg 40%
    15:00 -3°C° 0 mm 4 m/S 775 mmHg 40%
    16:00 -3°C° 0 mm 4 m/S 775 mmHg 40%
    17:00 -4°C° 0 mm 3 m/S 775 mmHg 44%
    18:00 -5°C° 0 mm 3 m/S 775 mmHg 48%
    19:00 -4°C° 0 mm 2 m/S 775 mmHg 52%
    20:00 -5°C° 0 mm 2 m/S 775 mmHg 54%
    21:00 -5°C° 0 mm 2 m/S 775 mmHg 56%
    22:00 -5°C° 0 mm 2 m/S 775 mmHg 58%
    23:00 -5°C° 0 mm 2 m/S 775 mmHg 60%

    26 Februar, Montag

    Zeit Temperatur Niederschläge Wind Luftdruck Luftfeuchtigkeit
    00:00 -5°C° 0 mm 2 m/S 775 mmHg 61%
    01:00 -6°C° 0 mm 2 m/S 775 mmHg 63%
    02:00 -6°C° 0 mm 2 m/S 774 mmHg 65%
    03:00 -6°C° 0 mm 2 m/S 774 mmHg 68%
    04:00 -6°C° 0 mm 2 m/S 774 mmHg 70%
    05:00 -6°C° 0 mm 2 m/S 774 mmHg 72%
    06:00 -6°C° 0 mm 2 m/S 774 mmHg 73%
    07:00 -6°C° 0 mm 2 m/S 774 mmHg 75%
    08:00 -6°C° 0,1 mm 3 m/S 774 mmHg 70%
    09:00 -5°C° 0,1 mm 3 m/S 774 mmHg 66%
    10:00 -5°C° 0,1 mm 4 m/S 773 mmHg 61%
    11:00 -4°C° 0,1 mm 4 m/S 773 mmHg 58%
    12:00 -4°C° 0,1 mm 4 m/S 773 mmHg 55%
    13:00 -4°C° 0,1 mm 4 m/S 772 mmHg 53%
    14:00 -4°C° 0,1 mm 4 m/S 772 mmHg 52%
    15:00 -4°C° 0,1 mm 4 m/S 772 mmHg 52%
    16:00 -4°C° 0,1 mm 4 m/S 771 mmHg 51%
    17:00 -5°C° 0 mm 4 m/S 771 mmHg 56%
    18:00 -7°C° 0 mm 4 m/S 771 mmHg 60%
    19:00 -6°C° 0 mm 3 m/S 771 mmHg 65%
    20:00 -7°C° 0 mm 3 m/S 771 mmHg 67%
    21:00 -7°C° 0 mm 3 m/S 771 mmHg 68%
    22:00 -6°C° 0 mm 2 m/S 771 mmHg 70%
    23:00 -6°C° 0 mm 2 m/S 770 mmHg 71%
    Mehr zeigen